weather.gov     
National Weather Service

Regional Weather Roundup
NWS Homepage
This page is being discontinued on March 12, 2014.
The same data is available at this site. Please update your bookmarks.
Thank you, and we apologize for the inconvenience.
Please send an email to SR-SRH.Webmaster@noaa.gov with any concerns.


Current Version
Previous Version:    01  02  03  04  05  06  07  08  09  10  11  12  13  14  15  16  17  18  19  20  21  22  23  24  
[Printable]
781
ASUS44 KSJT 310410
RWRSJT
WEST CENTRAL TEXAS REGIONAL WEATHER ROUNDUP
NATIONAL WEATHER SERVICE SAN ANGELO TX
1000 PM CST FRI JAN 30 2015

NOTE: "FAIR" INDICATES FEW OR NO CLOUDS BELOW 12,000 FEET WITH NO
SIGNIFICANT WEATHER AND/OR OBSTRUCTIONS TO VISIBILITY.

TXZ049-054-064>066-071>073-076>078-098-099-113-114-127-128-139-140-
154-155-168>170-310500
...LOCATIONS ACROSS WEST CENTRAL TEXAS...

CITY           SKY/WX    TMP DP  RH WIND       PRES   REMARKS
SAN ANGELO     CLOUDY    48  36  63 E8        30.22F
ABILENE        CLOUDY    47  32  56 E13       30.25F
DYESS AFB      CLOUDY    47  33  59 E9        30.25F
JUNCTION       CLOUDY    49  37  63 E8        30.24F
SWEETWATER     CLOUDY    46  32  58 E12       30.26F
BROWNWOOD      CLOUDY    46  34  61 E8        30.29F
COLEMAN        CLOUDY    47  36  66 E14       30.26F
SONORA         CLOUDY    52  36  54 E9        30.24F
OZONA          MOCLDY    52  36  54 SE12G22   30.20S
BRADY          PTCLDY    46  36  66 E12       30.24F
$$

TEXAS PANHANDLE/OKLAHOMA PANHANDLE

CITY           SKY/WX    TMP DP  RH WIND       PRES   REMARKS
AMARILLO       MIX PCPN  34  31  88 SE12      30.21F WCI  25
BORGER         CLOUDY    38  31  76 SE8       30.23F WCI  32
CANADIAN       DRIZZLE   41  31  68 S8        30.25F WCI  36
DALHART        MIX PCPN  37  33  85 S10       30.19F WCI  30
DUMAS          DRIZZLE   33  32  95 SE12      30.20F WCI  25
GUYMON         NOT AVBL
HEREFORD       DRIZZLE   37  33  84 SE10      30.20F WCI  30
PAMPA          CLOUDY    35  31  86 SE10      30.23F WCI  27
PERRYTON         N/A     36  32  85 S12       30.23S WCI  28
$$

SOUTHERN PANHANDLE/SOUTH PLAINS/ROLLING PLAINS

CITY           SKY/WX    TMP DP  RH WIND       PRES   REMARKS
LUBBOCK        CLOUDY    40  30  67 E10       30.21S WCI  33
SNYDER         CLOUDY   N/A N/A N/A E13       30.22F
CHILDRESS      CLOUDY    42  29  59 SE5       30.28F WCI  39
SEMINOLE       DRIZZLE   40  35  82 E7        30.20S WCI  36
$$

PERMIAN BASIN

CITY           SKY/WX    TMP DP  RH WIND       PRES   REMARKS
MIDLAND        CLOUDY    47  34  60 E14       30.19R
ODESSA         LGT RAIN  46  34  62 E14       30.19S WCI  40
WINK           LGT RAIN  45  39  79 E5        30.16S
$$

FAR WEST/SOUTHWEST MOUNTAINS/TRANS PECOS

CITY           SKY/WX    TMP DP  RH WIND       PRES   REMARKS
ALPINE         CLOUDY    41  39  92 N3        30.18F
DRYDEN           N/A     52  41  66 E8        30.17S
EL PASO        LGT RAIN  43  40  89 NE6       30.06F WCI  39
FORT STOCKTON  LGT RAIN  46  42  86 SE12      30.15F
GUADALUPE PASS CLOUDY    32  32 100 NE33G43   30.07F WCI  17
MARFA          CLOUDY    43  39  87 NE5       30.13F
PECOS          DRIZZLE   45  42  91 NE3       30.16F
$$

DALLAS/FORT WORTH METROPLEX

CITY           SKY/WX    TMP DP  RH WIND       PRES   REMARKS
DFW AIRPORT    CLOUDY    52  29  41 E10       30.31F
FTW MEACHAM    CLOUDY    53  30  41 E9        30.31F
DAL-EXECUTIVE  CLOUDY    53  29  39 E12       30.30F
GRAND PRAIRIE  CLOUDY    52  32  46 E8        30.33F
ADDISON        CLOUDY    52  29  41 E8        30.34F
MESQUITE       CLOUDY    50  31  47 E6        30.34F
LANCASTER      CLOUDY    49  31  49 E5        30.34F
$$

NORTH CENTRAL TEXAS

CITY           SKY/WX    TMP DP  RH WIND       PRES   REMARKS
SHRMAN/DENISON CLOUDY    50  34  54 E6        30.35F
GAINESVILLE    CLOUDY    48  31  52 E8        30.34F
BRIDGEPORT     CLOUDY    49  35  59 CALM      30.32F
DENTON         CLOUDY    51  30  44 E8        30.32F
WAXAHACHIE     CLOUDY    50  34  53 E6        30.33F
GRANBURY       CLOUDY    51  35  54 SE3       30.32F
$$

WESTERN NORTH TEXAS

CITY           SKY/WX    TMP DP  RH WIND       PRES   REMARKS
WICHITA FALLS  CLOUDY    46  32  58 E7        30.30F
VERNON         MOCLDY    45  27  49 CALM      30.31S
BRECKENRIDGE   CLOUDY    49  34  56 SE3       30.30S
COMANCHE       CLOUDY    46  37  72 S3        30.30S
$$

CENTRAL AND SOUTH CENTRAL TEXAS

CITY           SKY/WX    TMP DP  RH WIND       PRES   REMARKS
AUSTIN/BERGSTM CLOUDY    51  39  63 NE6       30.29F
WACO           CLOUDY    49  36  61 CALM      30.31F
HILLSBORO      CLOUDY    51  32  47 E6        30.31F
TEMPLE         CLOUDY    46  32  57 E6        30.30S
KILLEEN-GRAY   CLOUDY    47  38  70 NE7       30.29F
FORT HOOD      CLOUDY    49  35  59 E6        30.29F
GEORGETOWN     CLEAR     48  37  66 N5        30.30S
LAGO VISTA     FAIR      48  37  65 MISG      30.28F
SAN MARCOS     CLOUDY    52  39  62 NE8       30.28F
NEW BRAUNFELS  CLOUDY    53  40  61 NE5       30.27F
RANDOLPH AFB   CLOUDY    53  40  59 NE6       30.28S
SAN ANTONIO    CLOUDY    54  40  59 E7        30.28S
STINSON        CLOUDY    54  40  59 NE9       30.26F
PLEASANTON     NOT AVBL
LA GRANGE      PTCLDY    51  43  72 CALM      30.28S
GIDDINGS       CLOUDY    50  40  67 CALM      30.34S
$$

EAST TEXAS

CITY           SKY/WX    TMP DP  RH WIND       PRES   REMARKS
PARIS          CLOUDY    46  28  49 E7        30.37F
CLARKSVILLE    NOT AVBL
TYLER          CLOUDY    51  29  42 E8        30.34S
LONGVIEW       CLOUDY    48  33  56 E5        30.35F
PALESTINE      CLOUDY    51  32  47 E6        30.34S
NACOGDOCHES    MOCLDY    48  30  49 E6        30.36R
$$

TEXAS HILL COUNTRY AND EDWARDS PLATEAU

CITY           SKY/WX    TMP DP  RH WIND       PRES   REMARKS
LLANO          CLOUDY    48  37  66 CALM      30.32S
HORSESHOE BAY  FAIR      48  37  63 CALM      30.29F
KERRVILLE      CLOUDY    49  39  70 SE5       30.27S
FREDERICKSBRG  CLOUDY    48  38  67 E6        30.27F
ROCKSPRINGS    NOT AVBL
HONDO          CLOUDY    53  39  59 E10       30.28F
UVALDE         CLOUDY    54  40  60 E14G23    30.24F
DEL RIO        CLOUDY    58  42  55 E14       30.17F
$$

SOUTHEAST TEXAS

CITY           SKY/WX    TMP DP  RH WIND       PRES   REMARKS
COLLEGE STN    MOCLDY    51  35  54 E7        30.31F
CALDWELL       MOCLDY    48  36  61 E3        30.34S
CROCKETT       MOCLDY    52  37  58 E5        30.36F
BRENHAM        PTCLDY    51  38  61 E6        30.32R
HUNTSVILLE     FAIR      49  34  56 E6        30.31F
CONROE         CLEAR     44  37  76 E5        30.33S
HOUSTON BUSH   PTCLDY    48  38  68 E8        30.32S
HOUSTON HOBBY  PTCLDY    52  39  61 E6        30.32S
PERLAND        CLEAR     51  44  77 E13       30.33F
WHARTON        CLEAR     49  44  82 E6        30.31F
$$

THE UPPER TEXAS COAST

CITY           SKY/WX    TMP DP  RH WIND       PRES   REMARKS
ORANGE         CLEAR     49  36  61 NE3       30.36S
PORT ARTHUR    CLEAR     50  37  61 NE7       30.33S
GALVESTON      PTCLDY    54  45  71 E8        30.33S
ANGLETON       CLEAR     49  44  83 E3        30.32R
BAY CITY       CLEAR     50  47  88 E3        30.31S
$$

TEXAS COASTAL BEND, RIO GRANDE PLAINS DEEP SOUTH TEXAS

CITY           SKY/WX    TMP DP  RH WIND       PRES   REMARKS
VICTORIA       PTCLDY    51  46  83 E9        30.28F
BEEVILLE       CLOUDY    54  51  89 E6        30.28R
ROCKPORT       CLOUDY    58  53  84 E16       30.27S
PORT ARANSAS   CLOUDY    57  54  89 NE15G21   30.25F
PORT LAVACA    CLEAR     53  49  84 E13       30.28F
CORPUS CHRISTI CLOUDY    58  53  84 E12       30.25F
KINGSVILLE NAS CLOUDY    58  55  90 NE14      30.24F
COTULLA        NOT AVBL
LAREDO         CLOUDY    61  55  80 E9        30.22S
BROWNSVILLE    PTCLDY    63  60  90 NE3       30.20F
PORT ISABEL    PTCLDY    65  62  90 E8        30.20S
HEBBRONVILLE   CLOUDY    57  54  87 E12       30.23S FOG
MCALLEN        CLOUDY    65  61  87 E7        30.21S
WESLACO        MOCLDY    63  60  88 E6        30.20F
FALFURRIAS     CLOUDY    58  54  85 NE8       30.22F
EDINBURG       CLOUDY    66  61  83 E7        30.22R
$$




U.S. Dept. of Commerce
NOAA National Weather Service
1325 East West Highway
Silver Spring, MD 20910
E-mail: w-nws.webmaster@noaa.gov
Page last modified: May 16, 2007
NATIONAL WEATHER SERVICE: for Safety, for Work, for Fun - FOR LIFE